Location: Unspecified
(41.1637°N, 24.2901°E)
Time: 22:25:43
(UTC+02:00)

ISS - Pass Details

Date: 16 September 2019
Orbit: 411 x 421 km, 51.6° (Epoch: 19 September)

Event Time Altitude Azimuth Distance (km) Brightness Sun altitude
Exits shadow 04:47:16 24° 211° (SSW) 892 -2.5 -14.9°
Drops below altitude 10° 04:49:37 10° 168° (SSE) 1,483 -1.0 -14.5°
Sets 04:51:55 0° 155° (SSE) 2,344 0.2 -14.1°
